Location: Chevoux
(46.3801°N, 4.9476°E)
Time: 13:25:07
(UTC+00:00)

A-11 Canister half - All Passes

Search period start: 08 May 2021 00:00
Search period end: 18 May 2021 00:00
Orbit: 1514 x 1685 km, 47.2° (Epoch: 07 May)

Date Brightness Start Highest point End Pass type
(mag) Time Alt. Az. Time Alt. Az. Time Alt. Az.
08 May - 00:03:36 10° W 00:08:51 16° SW 00:14:11 10° SSW visible
08 May - 13:20:27 10° SSE 13:25:29 16° SE 13:30:31 10° E daylight
08 May - 15:19:49 10° SW 15:28:36 51° SE 15:37:27 10° ENE daylight
08 May - 17:23:47 10° WSW 17:33:03 89° SSE 17:42:32 10° E daylight
08 May - 19:28:51 10° W 19:38:11 90° SSW 19:47:49 10° ESE visible
08 May - 21:33:45 10° WNW 21:42:45 52° SW 21:52:02 10° SE visible
08 May - 23:40:23 10° W 23:46:03 18° SW 23:51:50 10° SSW visible
09 May - 12:58:11 10° SSE 13:02:42 15° SE 13:07:12 10° E daylight
09 May - 14:57:02 10° SW 15:05:45 48° SE 15:14:30 10° ENE daylight
09 May - 17:00:52 10° WSW 17:10:08 88° SSE 17:19:35 10° E daylight
09 May - 19:05:56 10° W 19:15:16 89° N 19:24:51 10° ESE daylight
09 May - 21:10:51 10° WNW 21:19:52 55° SSW 21:29:11 10° SE visible
09 May - 23:17:13 10° W 23:23:15 19° SW 23:29:24 10° SSW visible
10 May - 12:36:02 10° SSE 12:39:56 13° SE 12:43:48 10° E daylight
10 May - 14:34:16 10° SSW 14:42:54 46° SE 14:51:34 10° ENE daylight
10 May - 16:37:58 10° WSW 16:47:14 86° SSE 16:56:39 10° ENE daylight
10 May - 18:43:01 10° W 18:52:20 88° N 19:01:54 10° E daylight
10 May - 20:47:56 10° WNW 20:57:00 57° SSW 21:06:20 10° SE visible
10 May - 22:54:05 10° W 23:00:26 20° SW 23:06:55 10° S visible
11 May - 12:14:04 10° SE 12:17:09 12° ESE 12:20:15 10° ESE daylight
11 May - 14:11:31 10° SSW 14:20:04 44° SE 14:28:37 10° ENE daylight
11 May - 16:15:03 10° WSW 16:24:19 85° SSE 16:33:43 10° ENE daylight
11 May - 18:20:06 10° W 18:29:24 87° N 18:38:57 10° E daylight
11 May - 20:25:01 10° WNW 20:34:07 59° SSW 20:43:29 10° SE visible
11 May - 22:30:59 10° W 22:37:37 22° SW 22:44:24 10° S visible
12 May - 11:52:28 10° SE 11:54:24 11° ESE 11:56:19 10° ESE daylight
12 May - 13:48:45 10° SSW 13:57:13 42° SE 14:05:41 10° ENE daylight
12 May - 15:52:09 10° WSW 16:01:25 83° SSE 16:10:47 10° ENE daylight
12 May - 17:57:11 10° W 18:06:29 87° N 18:16:00 10° E daylight
12 May - 20:02:07 10° WNW 20:11:14 62° SSW 20:20:37 10° SE visible
12 May - 22:07:54 10° W 22:14:48 23° SW 22:21:51 10° S visible
13 May - 13:26:02 10° SSW 13:34:23 39° SE 13:42:43 10° ENE daylight
13 May - 15:29:15 10° WSW 15:38:31 81° SSE 15:47:51 10° ENE daylight
13 May - 17:34:15 10° W 17:43:33 86° N 17:53:03 10° E daylight
13 May - 19:39:13 10° WNW 19:48:21 64° SSW 19:57:45 10° SE visible
13 May - 21:44:52 10° W 21:52:00 25° SW 21:59:17 10° S visible
14 May - 13:03:18 10° SSW 13:11:33 37° SE 13:19:45 10° ENE daylight
14 May - 15:06:21 10° WSW 15:15:37 79° SSE 15:24:55 10° ENE daylight
14 May - 17:11:20 10° W 17:20:38 86° N 17:30:05 10° E daylight
14 May - 19:16:18 10° WNW 19:25:28 66° SSW 19:34:52 10° SE daylight
14 May - 21:21:51 10° W 21:29:10 27° SW 21:36:40 10° S visible
15 May - 12:40:36 10° SSW 12:48:44 35° SE 12:56:48 10° ENE daylight
15 May - 14:43:28 10° WSW 14:52:43 77° SSE 15:02:00 10° ENE daylight
15 May - 16:48:25 10° W 16:57:42 85° N 17:07:08 10° E daylight
15 May - 18:53:24 10° WNW 19:02:35 69° SSW 19:11:59 10° SE daylight
15 May - 20:58:50 10° W 21:06:21 28° SW 21:14:03 10° S visible
16 May - 12:17:55 10° SSW 12:25:54 33° SE 12:33:49 10° ENE daylight
16 May - 14:20:35 10° WSW 14:29:49 75° SSE 14:39:04 10° ENE daylight
16 May - 16:25:29 10° W 16:34:47 85° N 16:44:11 10° E daylight
16 May - 18:30:30 10° WNW 18:39:41 71° SSW 18:49:05 10° SE daylight
16 May - 20:35:50 10° WNW 20:43:31 30° SW 20:51:23 10° S visible
17 May - 11:55:14 10° SSW 12:03:05 32° SE 12:10:51 10° ENE daylight
17 May - 13:57:42 10° WSW 14:06:56 73° SSE 14:16:08 10° ENE daylight
17 May - 16:02:34 10° W 16:11:52 85° N 16:21:15 10° E daylight
17 May - 18:07:35 10° WNW 18:16:48 73° SSW 18:26:11 10° ESE daylight
17 May - 20:12:51 10° WNW 20:20:41 32° SW 20:28:43 10° SSE visible
